Location: Béaulencourt
(50.0796°N, 2.8795°E)
Time: 23:12:10
(UTC+00:00)

Cosmos 921 Rocket - Pass Details

Date: 20 January 2026
Orbit: 564 x 620 km, 75.8° (Epoch: 9 February)

Event Time Altitude Azimuth Distance (km) Brightness Sun altitude
Exits shadow 05:40:59 26° 331° (NNW) 1,165 4.1 -18.2°
Drops below altitude 10° 05:43:31 10° 3° (N) 1,894 5.5 -17.8°
Sets 05:45:55 0° 14° (NNE) 2,789 6.5 -17.4°
